• In Uzbekistan
  • List of Countries
  • For 7 days
  • Water Temperature
  • Satellite Maps
  • Weather Map
  • Weather Widgets
  • user-avatar
    Login

    Hourly Weather Hmelinka

    Today, 19 July, Thursday

    Time Temperature Precipitation Wind Pressure Humidity
    00:00 +17°C° 0.3 mm 5 mps 732 mmHg 94%
    01:00 +18°C° 0.2 mm 4 mps 732 mmHg 94%
    02:00 +18°C° 0.2 mm 4 mps 732 mmHg 95%
    03:00 +18°C° 0 mm 4 mps 732 mmHg 97%
    04:00 +18°C° 0.6 mm 4 mps 732 mmHg 96%
    05:00 +18°C° 0.6 mm 4 mps 732 mmHg 95%
    06:00 +19°C° 0.6 mm 4 mps 733 mmHg 94%
    07:00 +20°C° 0.3 mm 5 mps 733 mmHg 91%
    08:00 +21°C° 0.3 mm 5 mps 733 mmHg 87%
    09:00 +22°C° 0.3 mm 5 mps 733 mmHg 84%
    10:00 +23°C° 0.1 mm 5 mps 733 mmHg 80%
    11:00 +25°C° 0.1 mm 5 mps 734 mmHg 76%
    12:00 +26°C° 0.1 mm 5 mps 734 mmHg 72%
    13:00 +26°C° 0.5 mm 6 mps 734 mmHg 70%
    14:00 +27°C° 0.5 mm 6 mps 734 mmHg 69%
    15:00 +27°C° 0.5 mm 6 mps 734 mmHg 67%
    16:00 +27°C° 0.7 mm 5 mps 734 mmHg 71%
    17:00 +26°C° 0.7 mm 5 mps 734 mmHg 75%
    18:00 +26°C° 0.7 mm 4 mps 734 mmHg 79%
    19:00 +25°C° 0.5 mm 4 mps 734 mmHg 82%
    20:00 +22°C° 0.5 mm 3 mps 735 mmHg 85%
    21:00 +21°C° 0.5 mm 3 mps 735 mmHg 88%
    22:00 +21°C° 0.2 mm 3 mps 735 mmHg 89%
    23:00 +20°C° 0.2 mm 3 mps 735 mmHg 90%

    Tomorrow, 20 July, Friday

    Time Temperature Precipitation Wind Pressure Humidity
    00:00 +20°C° 0.2 mm 3 mps 735 mmHg 90%
    01:00 +20°C° 0.3 mm 3 mps 735 mmHg 92%
    02:00 +19°C° 0.3 mm 3 mps 735 mmHg 93%
    03:00 +19°C° 0.3 mm 3 mps 735 mmHg 94%
    04:00 +19°C° 0 mm 3 mps 735 mmHg 92%
    05:00 +20°C° 0 mm 3 mps 735 mmHg 91%
    06:00 +20°C° 0 mm 3 mps 735 mmHg 90%
    07:00 +22°C° 0 mm 3 mps 736 mmHg 84%
    08:00 +23°C° 0 mm 4 mps 736 mmHg 79%
    09:00 +26°C° 0 mm 4 mps 736 mmHg 74%
    10:00 +27°C° 0.3 mm 4 mps 736 mmHg 70%
    11:00 +28°C° 0.3 mm 3 mps 736 mmHg 66%
    12:00 +29°C° 0.3 mm 3 mps 736 mmHg 62%
    13:00 +29°C° 0.3 mm 4 mps 736 mmHg 62%
    14:00 +29°C° 0.3 mm 4 mps 736 mmHg 63%
    15:00 +29°C° 0.3 mm 5 mps 736 mmHg 63%
    16:00 +28°C° 0.3 mm 4 mps 736 mmHg 69%
    17:00 +27°C° 0.3 mm 4 mps 736 mmHg 75%
    18:00 +26°C° 0.3 mm 3 mps 736 mmHg 82%
    19:00 +24°C° 0 mm 3 mps 736 mmHg 85%
    20:00 +22°C° 0 mm 3 mps 736 mmHg 89%
    21:00 +21°C° 0 mm 3 mps 736 mmHg 92%
    22:00 +21°C° 0 mm 3 mps 736 mmHg 93%
    23:00 +20°C° 0 mm 3 mps 736 mmHg 93%

    Day after tomorrow, 21 July, Saturday

    Time Temperature Precipitation Wind Pressure Humidity
    00:00 +20°C° 0 mm 3 mps 736 mmHg 93%
    01:00 +19°C° 0 mm 2 mps 736 mmHg 93%
    02:00 +19°C° 0 mm 2 mps 736 mmHg 93%
    03:00 +19°C° 0 mm 2 mps 736 mmHg 93%
    04:00 +19°C° 0 mm 2 mps 736 mmHg 92%
    05:00 +19°C° 0 mm 2 mps 736 mmHg 91%
    06:00 +20°C° 0 mm 2 mps 736 mmHg 89%
    07:00 +21°C° 0 mm 2 mps 736 mmHg 84%
    08:00 +24°C° 0 mm 3 mps 736 mmHg 78%
    09:00 +26°C° 0 mm 3 mps 737 mmHg 73%
    10:00 +27°C° 0.4 mm 3 mps 737 mmHg 69%
    11:00 +28°C° 0.4 mm 3 mps 736 mmHg 65%
    12:00 +29°C° 0.4 mm 3 mps 736 mmHg 61%
    13:00 +29°C° 0.3 mm 3 mps 736 mmHg 61%
    14:00 +29°C° 0.3 mm 3 mps 736 mmHg 61%
    15:00 +29°C° 0.3 mm 3 mps 736 mmHg 61%
    16:00 +29°C° 0.8 mm 2 mps 736 mmHg 66%
    17:00 +28°C° 0.8 mm 2 mps 736 mmHg 70%
    18:00 +27°C° 0.8 mm 2 mps 736 mmHg 75%
    19:00 +26°C° 0 mm 2 mps 736 mmHg 78%
    20:00 +25°C° 0 mm 2 mps 736 mmHg 82%
    21:00 +23°C° 0 mm 2 mps 736 mmHg 85%
    22:00 +23°C° 0 mm 1 mps 736 mmHg 87%
    23:00 +22°C° 0 mm 1 mps 736 mmHg 88%

    22 July, Sunday

    Time Temperature Precipitation Wind Pressure Humidity
    00:00 +22°C° 0 mm 1 mps 736 mmHg 89%
    01:00 +20°C° 0.2 mm 2 mps 736 mmHg 90%
    02:00 +20°C° 0.2 mm 2 mps 736 mmHg 91%
    03:00 +20°C° 0.2 mm 2 mps 736 mmHg 93%
    04:00 +20°C° 0.1 mm 2 mps 736 mmHg 92%
    05:00 +20°C° 0.1 mm 2 mps 736 mmHg 91%
    06:00 +21°C° 0.1 mm 2 mps 736 mmHg 90%
    07:00 +23°C° 0 mm 2 mps 736 mmHg 84%
    08:00 +25°C° 0 mm 2 mps 736 mmHg 79%
    09:00 +26°C° 0 mm 2 mps 736 mmHg 74%
    10:00 +27°C° 1.1 mm 2 mps 736 mmHg 71%
    11:00 +28°C° 1.1 mm 3 mps 736 mmHg 68%
    12:00 +29°C° 1.1 mm 3 mps 736 mmHg 64%
    13:00 +29°C° 1 mm 3 mps 736 mmHg 65%
    14:00 +29°C° 1 mm 3 mps 736 mmHg 65%
    15:00 +29°C° 1 mm 3 mps 736 mmHg 66%
    16:00 +29°C° 0.4 mm 3 mps 736 mmHg 69%
    17:00 +28°C° 0.4 mm 2 mps 736 mmHg 72%
    18:00 +28°C° 0.4 mm 2 mps 736 mmHg 75%
    19:00 +27°C° 0.5 mm 2 mps 736 mmHg 79%
    20:00 +25°C° 0.5 mm 2 mps 736 mmHg 83%
    21:00 +24°C° 0.5 mm 3 mps 736 mmHg 87%
    22:00 +22°C° 0.4 mm 3 mps 736 mmHg 88%
    23:00 +22°C° 0.4 mm 3 mps 736 mmHg 90%

    23 July, Monday

    Time Temperature Precipitation Wind Pressure Humidity
    00:00 +21°C° 0.4 mm 3 mps 736 mmHg 91%
    01:00 +21°C° 0 mm 3 mps 736 mmHg 92%
    02:00 +21°C° 0 mm 3 mps 736 mmHg 93%
    03:00 +20°C° 0 mm 2 mps 736 mmHg 94%
    04:00 +20°C° 0.1 mm 2 mps 736 mmHg 93%
    05:00 +21°C° 0.1 mm 2 mps 736 mmHg 93%
    06:00 +21°C° 0.1 mm 2 mps 736 mmHg 92%
    07:00 +22°C° 0.4 mm 3 mps 736 mmHg 89%
    08:00 +24°C° 0.4 mm 3 mps 736 mmHg 85%
    09:00 +26°C° 0.4 mm 3 mps 736 mmHg 82%
    10:00 +27°C° 0.9 mm 3 mps 736 mmHg 78%
    11:00 +28°C° 0.9 mm 4 mps 736 mmHg 73%
    12:00 +29°C° 0.9 mm 4 mps 736 mmHg 69%
    13:00 +28°C° 2.7 mm 3 mps 736 mmHg 71%
    14:00 +28°C° 2.7 mm 3 mps 736 mmHg 74%
    15:00 +27°C° 2.7 mm 3 mps 736 mmHg 77%
    16:00 +26°C° 1 mm 3 mps 736 mmHg 80%
    17:00 +25°C° 1 mm 3 mps 736 mmHg 83%
    18:00 +25°C° 1 mm 3 mps 736 mmHg 87%
    19:00 +24°C° 0.1 mm 3 mps 736 mmHg 89%
    20:00 +22°C° 0.1 mm 3 mps 737 mmHg 90%
    21:00 +22°C° 0.1 mm 3 mps 737 mmHg 92%
    22:00 +21°C° 0.2 mm 3 mps 737 mmHg 93%
    23:00 +21°C° 0.2 mm 3 mps 737 mmHg 93%

    24 July, Tuesday

    Time Temperature Precipitation Wind Pressure Humidity
    00:00 +21°C° 0.2 mm 3 mps 737 mmHg 94%
    01:00 +20°C° 0 mm 3 mps 737 mmHg 94%
    02:00 +20°C° 0 mm 3 mps 737 mmHg 95%
    03:00 +20°C° 0 mm 3 mps 737 mmHg 95%
    04:00 +20°C° 0 mm 3 mps 738 mmHg 95%
    05:00 +20°C° 0 mm 3 mps 738 mmHg 94%
    06:00 +20°C° 0 mm 3 mps 738 mmHg 93%
    07:00 +22°C° 0.1 mm 3 mps 738 mmHg 89%
    08:00 +24°C° 0.1 mm 3 mps 738 mmHg 86%
    09:00 +25°C° 0.1 mm 4 mps 739 mmHg 82%
    10:00 +26°C° 0.9 mm 4 mps 739 mmHg 78%
    11:00 +27°C° 0.9 mm 4 mps 739 mmHg 74%
    12:00 +28°C° 0.9 mm 4 mps 739 mmHg 70%
    13:00 +27°C° 0.9 mm 4 mps 739 mmHg 72%
    14:00 +27°C° 0.9 mm 4 mps 739 mmHg 73%
    15:00 +27°C° 0.9 mm 4 mps 740 mmHg 74%
    16:00 +27°C° 0.1 mm 4 mps 740 mmHg 77%
    17:00 +26°C° 0.1 mm 3 mps 740 mmHg 80%
    18:00 +26°C° 0.1 mm 3 mps 740 mmHg 82%
    19:00 +25°C° 0.1 mm 3 mps 740 mmHg 84%
    20:00 +24°C° 0.1 mm 3 mps 740 mmHg 86%
    21:00 +22°C° 0.1 mm 3 mps 740 mmHg 88%
    22:00 +22°C° 0 mm 3 mps 740 mmHg 88%
    23:00 +21°C° 0 mm 3 mps 740 mmHg 88%
    Show more